SCP
0 0 0 0 0 0 0 0 0 0 0 0 0 0 0 0 0 0 0 0 0 0
0 0 0 0 0 0 0 0 0 0 0 0 0 0 0 0 0 0 0 0 0 0
0 0 0 0 0 0 0 0 0 0 0 0 0 0 0 0 0 0 0 0 0 0
0 0 0 0 0 0 0 0 0 0 0 0 0 0 0 0 0 0 0 0 0 0
0 0 0 0 0 0 0 0 0 0 0 0 0 0 0 0 0 0 0 0 0 0
0 0 0 0 0 0 0 0 0 0 0 0 0 0 0 0 0 0 0 0 0 0
0 0 0 0 0 0 0 0 0 0 0 0 0 0 0 0 0 0 0 0 0 0
0 0 0 0 0 0 0 0 0 0 0 0 0 0 0 0 0 0 0 0 0 0
0 0 0 0 0 0 0 0 0 0 0 0 0 0 0 0 0 0 0 0 0 0
0 0 0 0 0 0 0 0 0 0 0 0 0 0 0 0 0 0 0 0 0 -0
0 0 0 0 0 0 0 0 0 0 0 0 0 0 0 0 0 0 0 0 0 -0
0 0 0 0 0 0 0 0 0 0 0 0 0 0 0 0 0 0 0 0 0 -0
0 0 0 0 0 0 0 0 0 0 0 0 0 0 0 0 0 0 0 0 0 -0
0 0 0 0 0 0 0 0 0 0 0 0 0 0 0 0 0 0 0 0 -0 0
Wind_Speed_500mb
46 38 32 24 23 23 25 28 29 29 30 30 31 37 44 51 52 53 54 58 57 61
48 42 32 25 24 27 30 32 32 33 35 33 38 43 49 55 58 56 56 58 62 63
51 42 33 27 28 30 33 33 34 34 35 39 45 51 50 55 58 62 60 60 63 64
50 41 36 31 31 32 31 33 34 36 39 45 48 47 52 61 61 59 60 61 60 65
45 42 38 36 35 34 33 35 36 36 43 44 46 51 58 59 55 60 62 60 57 64
48 48 41 39 38 34 36 35 33 37 39 43 50 57 63 57 59 54 57 57 60 65
54 49 44 41 39 36 34 33 33 34 41 50 57 64 56 55 54 58 57 58 57 62
53 49 45 42 39 36 33 32 34 39 47 56 59 54 53 52 55 56 60 60 61 62
57 51 46 42 38 34 33 34 37 44 53 52 50 48 47 47 53 56 58 63 64 65
54 52 47 39 36 36 35 37 42 51 45 44 51 45 45 46 49 53 56 61 66 64
56 52 42 41 39 38 37 40 47 43 42 46 49 43 48 42 47 61 65 61 58 64
57 49 44 41 41 37 37 43 39 39 42 49 48 43 51 46 59 66 57 54 53 56
55 47 43 41 36 34 39 36 35 40 45 48 50 48 55 59 59 54 55 57 57 62
48 43 40 33 33 36 35 33 37 40 44 54 47 55 67 49 42 46 52 56 59 61
Wind_Direction_500mb
239 246 250 254 260 268 273 282 289 293 303 299 310 311 311 310 309 307 303 303 304 301
239 242 246 252 262 267 269 277 286 294 294 299 306 305 306 307 308 307 303 297 300 299
239 238 240 249 262 267 267 274 284 286 291 297 300 302 302 305 304 303 302 300 300 301
231 232 238 250 264 267 267 279 282 288 293 297 299 303 307 306 305 303 305 303 301 302
227 231 238 249 265 266 273 281 284 290 296 299 305 309 308 309 307 303 304 304 303 305
224 230 240 248 264 267 275 280 287 295 297 306 307 306 307 305 306 305 304 303 305 305
223 231 241 250 262 267 275 282 292 297 304 305 305 305 306 308 307 307 306 306 307 308
226 232 239 250 259 267 277 285 291 297 303 304 304 308 312 311 308 308 309 309 310 311
222 230 238 250 258 269 276 282 288 297 301 303 310 312 309 309 308 309 309 310 311 309
224 227 236 249 254 265 273 281 292 298 302 310 314 310 312 310 309 306 304 304 304 309
219 225 238 243 256 264 272 282 294 299 310 312 313 312 315 313 307 304 307 309 308 305
217 226 237 245 257 263 274 288 296 304 309 313 314 315 316 314 311 313 317 318 316 315
218 230 237 250 253 267 283 292 302 303 309 312 312 316 318 315 311 310 315 314 314 312
221 231 242 245 259 278 288 297 298 302 306 312 315 317 319 316 314 311 311 311 314 318
Wind_Speed_850mb
46 38 32 24 23 23 25 28 29 29 30 30 31 37 44 51 52 53 54 58 57 61
48 42 32 25 24 27 30 32 32 33 35 33 38 43 49 55 58 56 56 58 62 63
51 42 33 27 28 30 33 33 34 34 35 39 45 51 50 55 58 62 60 60 63 64
50 41 36 31 31 32 31 33 34 36 39 45 48 47 52 61 61 59 60 61 60 65
45 42 38 36 35 34 33 35 36 36 43 44 46 51 58 59 55 60 62 60 57 64
48 48 41 39 38 34 36 35 33 37 39 43 50 57 63 57 59 54 57 57 60 65
54 49 44 41 39 36 34 33 33 34 41 50 57 64 56 55 54 58 57 58 57 62
53 49 45 42 39 36 33 32 34 39 47 56 59 54 53 52 55 56 60 60 61 62
57 51 46 42 38 34 33 34 37 44 53 52 50 48 47 47 53 56 58 63 64 65
54 52 47 39 36 36 35 37 42 51 45 44 51 45 45 46 49 53 56 61 66 64
56 52 42 41 39 38 37 40 47 43 42 46 49 43 48 42 47 61 65 61 58 64
57 49 44 41 41 37 37 43 39 39 42 49 48 43 51 46 59 66 57 54 53 56
55 47 43 41 36 34 39 36 35 40 45 48 50 48 55 59 59 54 55 57 57 62
48 43 40 33 33 36 35 33 37 40 44 54 47 55 67 49 42 46 52 56 59 61
Wind_Direction_850mb
239 246 250 254 260 268 273 282 289 293 303 299 310 311 311 310 309 307 303 303 304 301
239 242 246 252 262 267 269 277 286 294 294 299 306 305 306 307 308 307 303 297 300 299
239 238 240 249 262 267 267 274 284 286 291 297 300 302 302 305 304 303 302 300 300 301
231 232 238 250 264 267 267 279 282 288 293 297 299 303 307 306 305 303 305 303 301 302
227 231 238 249 265 266 273 281 284 290 296 299 305 309 308 309 307 303 304 304 303 305
224 230 240 248 264 267 275 280 287 295 297 306 307 306 307 305 306 305 304 303 305 305
223 231 241 250 262 267 275 282 292 297 304 305 305 305 306 308 307 307 306 306 307 308
226 232 239 250 259 267 277 285 291 297 303 304 304 308 312 311 308 308 309 309 310 311
222 230 238 250 258 269 276 282 288 297 301 303 310 312 309 309 308 309 309 310 311 309
224 227 236 249 254 265 273 281 292 298 302 310 314 310 312 310 309 306 304 304 304 309
219 225 238 243 256 264 272 282 294 299 310 312 313 312 315 313 307 304 307 309 308 305
217 226 237 245 257 263 274 288 296 304 309 313 314 315 316 314 311 313 317 318 316 315
218 230 237 250 253 267 283 292 302 303 309 312 312 316 318 315 311 310 315 314 314 312
221 231 242 245 259 278 288 297 298 302 306 312 315 317 319 316 314 311 311 311 314 318